Regional Weather Roundup
Issued by NWS Sterling, VA

Current Version | Previous Version | Text Only | Print | Product List | Glossary On
Versions: 1 2 3 4 5 6 7 8 9 10 11 12 13 14 15 16 17 18 19 20 21 22 23 24 25 26 27
000
ASUS41 KLWX 231711
RWRLWX

REGIONAL WEATHER ROUNDUP
NATIONAL WEATHER SERVICE BALTIMORE MD/WASHINGTON DC
100 PM EDT WED AUG 23 2017

Note: "FAIR" indicates few or no clouds below 12,000 feet
with no significant weather and/or obstructions to visibility.
 TC=TEMPERATURE CELSIUS

 * =Non NWS site. Station does not report precipitation (e.g. rain,
    snow, etc.), thunder, or fog.

DCZ001-MDZ009-015-VAZ040>042-051-053>054-231800-
WASHINGTON METRO

CITY           SKY/WX    TMP DP  RH WIND       PRES   REMARKS
WASHINGTON NAT CLOUDY    82  67  60 NW10      29.89S
DULLES         PTSUNNY   79  65  62 NW9       29.90F
ANDREWS AFB    PTSUNNY   79  67  66 NW6       29.89S
FT BELVOIR     CLOUDY    79  65  62 N8        29.89S
QUANTICO       CLOUDY    79  70  74 NW5       29.91R
COLLEGE PARK*  CLOUDY    80  65  59 NW8       29.88F
LEESBURG*      CLOUDY    81  64  57 N8        29.92F
MANASSAS*      PTSUNNY   81  68  64 NW8       29.91S
GAITHERSBURG*  CLOUDY    78  63  59 CALM      29.92S

$$

MDZ006>007-011-014-231800-
BALTIMORE METRO

CITY           SKY/WX    TMP DP  RH WIND       PRES   REMARKS
BWI AIRPORT    CLOUDY    80  64  58 NW6       29.88S
MD SCIENCE CTR   N/A     81  62  52 MISG      29.88S
MARTIN STATE   PTSUNNY   82  68  61 NW8       29.89F
ANNAPOLIS      CLOUDY    82  69  64 N6        29.87F
FORT MEADE*    CLOUDY    79  68  69 NW6       29.91S

$$

MDZ012-015-019>023-231800-
MARYLAND EASTERN SHORE

CITY           SKY/WX    TMP DP  RH WIND       PRES   REMARKS
OCEAN CITY     CLOUDY    81  71  71 E8        29.86S
SALISBURY      CLOUDY    83  72  69 N7        29.86R
BAY BRIDGE AP* CLOUDY    79  68  69 N7        29.88S
CAMBRIDGE*     PTSUNNY   81  72  74 N7        29.87S
EASTON*        CLOUDY    81  68  65 N6        29.91S

$$

MDZ017>025-231800-
SOUTHERN MARYLAND

CITY           SKY/WX    TMP DP  RH WIND       PRES   REMARKS
PATUXENT RIVER CLOUDY    78  72  81 N8        29.87F
ST INIGOES     CLOUDY    81  72  74 VRB5      29.86F
LEONARDTOWN*   CLOUDY    77  68  73 N3        29.90S

$$

MDZ003>005-231800-
NORTH CENTRAL MARYLAND

CITY           SKY/WX    TMP DP  RH WIND       PRES   REMARKS
FREDERICK*     PTSUNNY   82  59  44 NW6       29.94S
HAGERSTOWN APT MOSUNNY   78  58  49 W10       29.93F
WESTMINSTER*   PTSUNNY   79  61  53 N6        29.93R

$$

MDZ501>502-231800-
WESTERN MARYLAND

CITY           SKY/WX    TMP DP  RH WIND       PRES   REMARKS
OAKLAND*       MOSUNNY   68  55  64 NW6       30.00S
CUMBERLAND*    MOSUNNY   79  55  44 SW6       29.96F

$$

VAZ025>031-231800-
SHENANDOAH VALLEY

CITY           SKY/WX    TMP DP  RH WIND       PRES   REMARKS
WINCHESTER*    MOSUNNY   77  61  57 NW3       29.92F
FRONT ROYAL*   MOSUNNY   79  64  61 N3        29.91F
LURAY*         CLOUDY    79  64  61 E3        29.92F
NEW MARKET*    PTSUNNY   80  63  55 E7        29.90F
STAUNTON*      MOSUNNY   78  67  68 E3        29.95F
WAYNESBORO*    CLOUDY    79  67  68 SW5       29.95F

$$

WVZ021-048>050-054>055-231800-
EASTERN WEST VIRGINIA PANHANDLE

CITY           SKY/WX    TMP DP  RH WIND       PRES   REMARKS
MARTINSBURG    MOSUNNY   79  58  48 MISG      29.92S
PETERSBURG*    PTSUNNY   82  63  52 W8        29.93F

$$

VAZ036>039-050-231800-
CENTRAL FOOTHILLS

CITY           SKY/WX    TMP DP  RH WIND       PRES   REMARKS
CHARLOTTESVILL CLOUDY    78  69  73 E7        29.91F
CULPEPER*      CLOUDY    79  67  68 N6        29.92S
ORANGE*        CLOUDY    75  68  78 E5        29.91F
GORDONSVILLE*  CLOUDY    75  69  81 CALM      29.91F
WARRENTON*     PTSUNNY   80  64  56 N8        29.90F

$$

VAZ055>057-231800-
NORTH AND CENTRAL PIEDMONT

CITY           SKY/WX    TMP DP  RH WIND       PRES   REMARKS
FREDERICKSBRG* LGT RAIN  73  70  91 NE5       29.90S
STAFFORD*      DRIZZLE   75  73  93 N3        29.95S

$$

NCZ024-NYZ072-PAZ021-071-VAZ022-071-231800-
OTHER REGIONAL OBSERVATIONS

CITY           SKY/WX    TMP DP  RH WIND       PRES   REMARKS
NEW YORK CITY  MOSUNNY   79  53  40 MISG      29.87S
PHILADELPHIA   PTSUNNY   81  54  39 W10       29.87S
PITTSBURGH     PTSUNNY   74  51  44 VRB3      29.98S
ROANOKE        PTSUNNY   83  65  54 N5        29.95F
RICHMOND       CLOUDY    85  72  65 N12       29.87F HX  91
RALEIGH        MOSUNNY   92  72  51 VRB6      29.88F HX  99

$$

ANZ530>537-231800-
MARINE OBSERVATIONS

STATION/POSITION TIME  TEMP    WIND        PRES
                       AIR SEA DIR/SP/G
                 (UTC) (F)     (DEG/KT/KT) (MB)
THOMAS PT LIGHT  1700   78 81   30/  8/ 10   N/A
BALT KEY BRIDGE  1648   80     300/  6/  7 1011.6S
COVE POINT       1648   78      10/  7/ 10 1012.3F
LEWISETTA        1648   82 83   30/  5/  7 1011.4F
SOLOMONS ISLAND  1648   78 82  340/  5/  9   N/A
PINEY POINT      1648          350/  9/ 11   N/A

$$





USA.gov is the U.S. government's official web portal to all federal, state and local government web resources and services.